Time,TemperatureF,DewpointF,PressureIn,WindDirection,WindDirectionDegrees,WindSpeedMPH,WindSpeedGustMPH,Humidity,HourlyPrecipIn,Conditions,Clouds,dailyrainin,SoftwareType,DateUTC
2013-01-03 00:09:00,26.4,2.5,30.27,North,-999,0.0,0.0,35,0.00,,,-99.99,FreeWX-Wi 1.01,2013-01-03 05:09:00,
2013-01-03 00:14:00,26.4,2.5,30.27,North,-999,0.0,0.0,35,0.00,,,-99.99,FreeWX-Wi 1.01,2013-01-03 05:14:00,
2013-01-03 00:19:00,26.2,2.3,30.27,North,-999,0.0,4.0,35,0.00,,,-99.99,FreeWX-Wi 1.01,2013-01-03 05:19:00,
2013-01-03 00:24:00,25.3,1.6,30.27,North,-999,0.0,3.1,35,0.00,,,-99.99,FreeWX-Wi 1.01,2013-01-03 05:24:00,
2013-01-03 00:29:00,24.8,2.3,30.27,North,-999,0.0,4.0,37,0.00,,,-99.99,FreeWX-Wi 1.01,2013-01-03 05:29:00,
2013-01-03 00:34:00,24.4,3.0,30.30,NNW,345,1.0,4.0,39,0.00,,,-99.99,FreeWX-Wi 1.01,2013-01-03 05:34:00,
2013-01-03 00:39:00,24.4,4.6,30.30,NNW,348,1.0,4.0,42,0.00,,,-99.99,FreeWX-Wi 1.01,2013-01-03 05:39:00,
2013-01-03 00:44:00,24.6,4.8,30.30,North,349,1.0,4.0,42,0.00,,,-99.99,FreeWX-Wi 1.01,2013-01-03 05:44:00,
2013-01-03 00:49:00,24.8,5.0,30.30,North,350,1.0,3.6,42,0.00,,,-99.99,FreeWX-Wi 1.01,2013-01-03 05:49:00,
2013-01-03 00:54:00,24.4,4.6,30.30,North,351,2.0,4.0,42,0.00,,,-99.99,FreeWX-Wi 1.01,2013-01-03 05:54:00,
2013-01-03 00:59:00,24.3,4.5,30.30,North,352,2.0,4.9,42,0.00,,,-99.99,FreeWX-Wi 1.01,2013-01-03 05:59:00,
2013-01-03 01:04:00,24.3,5.0,30.30,North,353,2.0,4.9,43,0.00,,,-99.99,FreeWX-Wi 1.01,2013-01-03 06:04:00,
2013-01-03 01:09:00,24.4,5.2,30.30,North,354,2.0,6.3,43,0.00,,,-99.99,FreeWX-Wi 1.01,2013-01-03 06:09:00,
2013-01-03 01:14:00,24.4,5.2,30.30,North,355,3.0,4.9,43,0.00,,,-99.99,FreeWX-Wi 1.01,2013-01-03 06:14:00,
2013-01-03 01:19:00,24.6,5.9,30.30,North,356,3.0,4.0,44,0.00,,,-99.99,FreeWX-Wi 1.01,2013-01-03 06:19:00,
2013-01-03 01:24:00,24.6,5.9,30.30,North,355,3.0,5.4,44,0.00,,,-99.99,FreeWX-Wi 1.01,2013-01-03 06:24:00,
2013-01-03 01:29:00,25.0,5.7,30.30,North,354,3.0,4.0,43,0.00,,,-99.99,FreeWX-Wi 1.01,2013-01-03 06:29:00,
2013-01-03 01:34:00,25.3,6.1,30.30,North,354,3.0,4.0,43,0.00,,,-99.99,FreeWX-Wi 1.01,2013-01-03 06:34:00,
2013-01-03 01:39:00,25.3,6.1,30.30,North,353,3.0,4.0,43,0.00,,,-99.99,FreeWX-Wi 1.01,2013-01-03 06:39:00,
2013-01-03 01:44:00,25.3,6.1,30.30,North,352,3.0,5.8,43,0.00,,,-99.99,FreeWX-Wi 1.01,2013-01-03 06:44:00,
2013-01-03 01:49:00,25.5,6.3,30.30,North,351,3.0,5.8,43,0.00,,,-99.99,FreeWX-Wi 1.01,2013-01-03 06:49:00,
2013-01-03 01:54:00,25.5,6.3,30.30,North,349,3.0,4.9,43,0.00,,,-99.99,FreeWX-Wi 1.01,2013-01-03 06:54:00,
2013-01-03 01:59:00,25.3,6.1,30.30,North,349,3.0,5.8,43,0.00,,,-99.99,FreeWX-Wi 1.01,2013-01-03 06:59:00,
2013-01-03 02:04:00,25.2,5.9,30.30,NNW,348,3.0,5.8,43,0.00,,,-99.99,FreeWX-Wi 1.01,2013-01-03 07:04:00,
2013-01-03 02:09:00,25.0,5.7,30.30,NNW,347,3.0,5.8,43,0.00,,,-99.99,FreeWX-Wi 1.01,2013-01-03 07:09:00,
2013-01-03 02:14:00,24.8,6.1,30.30,NNW,346,4.0,5.8,44,0.00,,,-99.99,FreeWX-Wi 1.01,2013-01-03 07:14:00,
2013-01-03 02:19:00,24.8,6.1,30.30,NNW,346,4.0,6.3,44,0.00,,,-99.99,FreeWX-Wi 1.01,2013-01-03 07:19:00,
2013-01-03 02:24:00,24.8,6.4,30.30,NNW,345,4.0,5.4,45,0.00,,,-99.99,FreeWX-Wi 1.01,2013-01-03 07:24:00,
2013-01-03 02:29:00,24.8,6.4,30.30,NNW,344,4.0,6.3,45,0.00,,,-99.99,FreeWX-Wi 1.01,2013-01-03 07:29:00,
2013-01-03 02:34:00,25.0,6.6,30.30,NNW,344,4.0,5.4,45,0.00,,,-99.99,FreeWX-Wi 1.01,2013-01-03 07:34:00,
2013-01-03 02:39:00,25.3,6.4,30.30,NNW,343,4.0,5.4,44,0.00,,,-99.99,FreeWX-Wi 1.01,2013-01-03 07:39:00,
2013-01-03 02:44:00,25.3,6.4,30.30,NNW,342,4.0,4.9,44,0.00,,,-99.99,FreeWX-Wi 1.01,2013-01-03 07:44:00,
2013-01-03 02:49:00,25.3,6.4,30.30,NNW,342,4.0,4.0,44,0.00,,,-99.99,FreeWX-Wi 1.01,2013-01-03 07:49:00,
2013-01-03 02:54:00,25.3,6.4,30.30,NNW,341,4.0,4.0,44,0.00,,,-99.99,FreeWX-Wi 1.01,2013-01-03 07:54:00,
2013-01-03 02:59:00,25.3,6.4,30.30,NNW,341,4.0,4.0,44,0.00,,,-99.99,FreeWX-Wi 1.01,2013-01-03 07:59:00,
2013-01-03 03:04:00,25.3,6.4,30.30,NNW,342,4.0,4.9,44,0.00,,,-99.99,FreeWX-Wi 1.01,2013-01-03 08:04:00,
2013-01-03 03:09:00,25.2,6.3,30.30,NNW,341,4.0,5.4,44,0.00,,,-99.99,FreeWX-Wi 1.01,2013-01-03 08:09:00,
2013-01-03 03:14:00,25.0,6.3,30.30,NNW,340,4.0,5.4,44,0.00,,,-99.99,FreeWX-Wi 1.01,2013-01-03 08:14:00,
2013-01-03 03:19:00,25.0,6.3,30.30,NNW,340,3.0,5.4,44,0.00,,,-99.99,FreeWX-Wi 1.01,2013-01-03 08:19:00,
2013-01-03 03:24:00,24.4,5.7,30.30,NNW,341,3.0,5.4,44,0.00,,,-99.99,FreeWX-Wi 1.01,2013-01-03 08:24:00,
2013-01-03 03:29:00,23.9,5.7,30.30,NNW,342,3.0,6.3,45,0.00,,,-99.99,FreeWX-Wi 1.01,2013-01-03 08:29:00,
2013-01-03 03:34:00,23.7,5.5,30.30,NNW,344,4.0,5.8,45,0.00,,,-99.99,FreeWX-Wi 1.01,2013-01-03 08:34:00,
2013-01-03 03:39:00,23.9,5.7,30.30,NNW,344,4.0,5.8,45,0.00,,,-99.99,FreeWX-Wi 1.01,2013-01-03 08:39:00,
2013-01-03 03:44:00,24.3,6.4,30.30,NNW,345,4.0,5.8,46,0.00,,,-99.99,FreeWX-Wi 1.01,2013-01-03 08:44:00,
2013-01-03 03:49:00,24.3,6.4,30.30,NNW,346,4.0,4.9,46,0.00,,,-99.99,FreeWX-Wi 1.01,2013-01-03 08:49:00,
2013-01-03 03:54:00,24.3,6.4,30.30,NNW,348,4.0,4.9,46,0.00,,,-99.99,FreeWX-Wi 1.01,2013-01-03 08:54:00,
2013-01-03 03:59:00,24.4,6.6,30.30,NNW,348,3.0,4.0,46,0.00,,,-99.99,FreeWX-Wi 1.01,2013-01-03 08:59:00,
2013-01-03 04:04:00,24.4,6.6,30.30,NNW,347,3.0,5.8,46,0.00,,,-99.99,FreeWX-Wi 1.01,2013-01-03 09:04:00,
2013-01-03 04:09:00,24.4,6.6,30.30,NNW,346,4.0,6.3,46,0.00,,,-99.99,FreeWX-Wi 1.01,2013-01-03 09:09:00,
2013-01-03 04:15:00,24.4,6.6,30.30,NNW,342,3.0,6.3,46,0.00,,,-99.99,FreeWX-Wi 1.01,2013-01-03 09:15:00,
2013-01-03 04:20:00,24.6,6.8,30.30,NNW,339,3.0,4.9,46,0.00,,,-99.99,FreeWX-Wi 1.01,2013-01-03 09:20:00,
2013-01-03 04:25:00,24.6,6.8,30.30,NNW,336,3.0,4.0,46,0.00,,,-99.99,FreeWX-Wi 1.01,2013-01-03 09:25:00,
2013-01-03 04:35:00,24.8,7.0,30.30,NNW,332,3.0,3.6,46,0.00,,,-99.99,FreeWX-Wi 1.01,2013-01-03 09:35:00,
2013-01-03 04:40:00,24.8,6.4,30.30,NNW,330,3.0,4.0,45,0.00,,,-99.99,FreeWX-Wi 1.01,2013-01-03 09:40:00,
2013-01-03 04:45:00,24.4,6.3,30.30,NNW,328,3.0,5.4,45,0.00,,,-99.99,FreeWX-Wi 1.01,2013-01-03 09:45:00,
2013-01-03 04:50:00,24.4,6.3,30.30,NNW,327,3.0,5.4,45,0.00,,,-99.99,FreeWX-Wi 1.01,2013-01-03 09:50:00,
2013-01-03 04:55:00,24.4,6.3,30.30,NNW,329,3.0,4.9,45,0.00,,,-99.99,FreeWX-Wi 1.01,2013-01-03 09:55:00,
2013-01-03 05:00:00,24.4,6.6,30.30,NNW,330,3.0,4.0,46,0.00,,,-99.99,FreeWX-Wi 1.01,2013-01-03 10:00:00,
2013-01-03 05:05:00,24.4,6.6,30.30,NNW,333,3.0,6.3,46,0.00,,,-99.99,FreeWX-Wi 1.01,2013-01-03 10:05:00,
2013-01-03 05:10:00,24.3,6.4,30.30,NNW,336,3.0,5.8,46,0.00,,,-99.99,FreeWX-Wi 1.01,2013-01-03 10:10:00,
2013-01-03 05:15:00,24.3,7.0,30.30,NNW,338,3.0,4.9,47,0.00,,,-99.99,FreeWX-Wi 1.01,2013-01-03 10:15:00,
2013-01-03 05:20:00,24.3,7.5,30.30,NNW,341,3.0,7.6,48,0.00,,,-99.99,FreeWX-Wi 1.01,2013-01-03 10:20:00,
2013-01-03 05:25:00,24.4,7.5,30.30,NNW,344,3.0,5.8,48,0.00,,,-99.99,FreeWX-Wi 1.01,2013-01-03 10:25:00,
2013-01-03 05:30:00,24.3,7.5,30.30,NNW,347,4.0,5.8,48,0.00,,,-99.99,FreeWX-Wi 1.01,2013-01-03 10:30:00,
2013-01-03 05:35:00,24.3,7.0,30.30,North,351,4.0,5.8,47,0.00,,,-99.99,FreeWX-Wi 1.01,2013-01-03 10:35:00,
2013-01-03 05:40:00,23.9,6.6,30.30,North,354,4.0,4.9,47,0.00,,,-99.99,FreeWX-Wi 1.01,2013-01-03 10:40:00,
2013-01-03 05:45:00,23.7,6.4,30.30,North,356,4.0,6.3,47,0.00,,,-99.99,FreeWX-Wi 1.01,2013-01-03 10:45:00,
2013-01-03 05:50:00,23.7,7.3,30.30,North,358,4.0,7.6,49,0.00,,,-99.99,FreeWX-Wi 1.01,2013-01-03 10:50:00,
2013-01-03 05:55:00,23.5,7.2,30.30,North,1,4.0,5.8,49,0.00,,,-99.99,FreeWX-Wi 1.01,2013-01-03 10:55:00,
2013-01-03 06:00:00,23.5,7.2,30.30,North,2,4.0,6.3,49,0.00,,,-99.99,FreeWX-Wi 1.01,2013-01-03 11:00:00,
2013-01-03 06:05:00,23.5,7.2,30.30,North,2,4.0,5.4,49,0.00,,,-99.99,FreeWX-Wi 1.01,2013-01-03 11:05:00,
2013-01-03 06:10:00,23.5,7.2,30.30,North,3,4.0,6.3,49,0.00,,,-99.99,FreeWX-Wi 1.01,2013-01-03 11:10:00,
2013-01-03 06:15:00,23.7,8.2,30.30,North,4,4.0,5.8,51,0.00,,,-99.99,FreeWX-Wi 1.01,2013-01-03 11:15:00,
2013-01-03 06:20:00,23.9,8.4,30.33,North,5,4.0,7.6,51,0.00,,,-99.99,FreeWX-Wi 1.01,2013-01-03 11:20:00,
2013-01-03 06:25:00,24.1,8.6,30.33,North,6,4.0,5.8,51,0.00,,,-99.99,FreeWX-Wi 1.01,2013-01-03 11:25:00,
2013-01-03 06:30:00,24.4,9.3,30.33,North,5,4.0,6.3,52,0.00,,,-99.99,FreeWX-Wi 1.01,2013-01-03 11:30:00,
2013-01-03 06:35:00,24.8,10.0,30.30,North,5,4.0,6.3,53,0.00,,,-99.99,FreeWX-Wi 1.01,2013-01-03 11:35:00,
2013-01-03 06:40:00,25.3,10.2,30.30,North,4,4.0,6.7,52,0.00,,,-99.99,FreeWX-Wi 1.01,2013-01-03 11:40:00,
2013-01-03 06:45:00,25.5,9.9,30.30,North,5,4.0,7.6,51,0.00,,,-99.99,FreeWX-Wi 1.01,2013-01-03 11:45:00,
2013-01-03 06:50:00,25.3,9.3,30.33,North,5,4.0,5.8,50,0.00,,,-99.99,FreeWX-Wi 1.01,2013-01-03 11:50:00,
2013-01-03 06:55:00,25.3,9.3,30.33,North,5,4.0,5.8,50,0.00,,,-99.99,FreeWX-Wi 1.01,2013-01-03 11:55:00,
2013-01-03 07:00:00,25.5,10.4,30.33,North,5,4.0,6.3,52,0.00,,,-99.99,FreeWX-Wi 1.01,2013-01-03 12:00:00,
2013-01-03 07:05:00,25.7,10.6,30.33,North,6,4.0,4.5,52,0.00,,,-99.99,FreeWX-Wi 1.01,2013-01-03 12:05:00,
2013-01-03 07:10:00,26.1,10.9,30.33,North,5,4.0,5.8,52,0.00,,,-99.99,FreeWX-Wi 1.01,2013-01-03 12:10:00,
2013-01-03 07:15:00,26.6,11.8,30.33,North,2,4.0,6.3,53,0.00,,,-99.99,FreeWX-Wi 1.01,2013-01-03 12:15:00,
2013-01-03 07:20:00,27.0,11.7,30.33,North,1,4.0,6.3,52,0.00,,,-99.99,FreeWX-Wi 1.01,2013-01-03 12:20:00,
2013-01-03 07:25:00,27.5,11.8,30.33,North,1,4.0,6.3,51,0.00,,,-99.99,FreeWX-Wi 1.01,2013-01-03 12:25:00,
2013-01-03 07:30:00,27.9,12.0,30.33,North,2,4.0,5.4,51,0.00,,,-99.99,FreeWX-Wi 1.01,2013-01-03 12:30:00,
2013-01-03 07:35:00,27.9,11.1,30.33,North,2,4.0,8.3,49,0.00,,,-99.99,FreeWX-Wi 1.01,2013-01-03 12:35:00,
2013-01-03 07:40:00,27.9,11.1,30.33,North,3,4.0,7.6,49,0.00,,,-99.99,FreeWX-Wi 1.01,2013-01-03 12:40:00,
2013-01-03 07:45:00,27.9,11.1,30.33,North,2,4.0,6.3,49,0.00,,,-99.99,FreeWX-Wi 1.01,2013-01-03 12:45:00,
2013-01-03 07:50:00,27.9,11.1,30.33,North,2,4.0,5.8,49,0.00,,,-99.99,FreeWX-Wi 1.01,2013-01-03 12:50:00,
2013-01-03 07:55:00,27.9,11.1,30.33,North,2,4.0,6.3,49,0.00,,,-99.99,FreeWX-Wi 1.01,2013-01-03 12:55:00,
2013-01-03 08:00:00,27.7,10.6,30.33,North,1,4.0,6.3,48,0.00,,,-99.99,FreeWX-Wi 1.01,2013-01-03 13:00:00,
2013-01-03 08:05:00,27.5,10.4,30.36,North,1,4.0,4.0,48,0.00,,,-99.99,FreeWX-Wi 1.01,2013-01-03 13:05:00,
2013-01-03 08:10:00,27.5,10.4,30.36,North,1,4.0,4.0,48,0.00,,,-99.99,FreeWX-Wi 1.01,2013-01-03 13:10:00,
2013-01-03 08:15:00,27.3,10.2,30.36,North,1,4.0,4.0,48,0.00,,,-99.99,FreeWX-Wi 1.01,2013-01-03 13:15:00,
2013-01-03 08:20:00,27.3,10.2,30.36,North,1,4.0,4.0,48,0.00,,,-99.99,FreeWX-Wi 1.01,2013-01-03 13:20:00,
2013-01-03 08:25:00,27.0,9.9,30.36,North,1,3.0,4.0,48,0.00,,,-99.99,FreeWX-Wi 1.01,2013-01-03 13:25:00,
2013-01-03 08:30:00,27.0,10.8,30.36,North,1,3.0,6.3,50,0.00,,,-99.99,FreeWX-Wi 1.01,2013-01-03 13:30:00,
2013-01-03 08:35:00,27.5,12.2,30.36,North,2,3.0,8.1,52,0.00,,,-99.99,FreeWX-Wi 1.01,2013-01-03 13:35:00,
2013-01-03 08:40:00,28.2,13.3,30.36,North,4,4.0,11.0,53,0.00,,,-99.99,FreeWX-Wi 1.01,2013-01-03 13:40:00,
2013-01-03 08:45:00,28.8,13.5,30.36,North,6,4.0,9.6,52,0.00,,,-99.99,FreeWX-Wi 1.01,2013-01-03 13:45:00,
2013-01-03 08:50:00,29.3,12.6,30.33,North,7,4.0,7.6,49,0.00,,,-99.99,FreeWX-Wi 1.01,2013-01-03 13:50:00,
2013-01-03 08:55:00,29.5,12.7,30.33,North,9,4.0,8.7,49,0.00,,,-99.99,FreeWX-Wi 1.01,2013-01-03 13:55:00,
2013-01-03 09:00:00,29.5,12.7,30.33,NNE,12,4.0,4.0,49,0.00,,,-99.99,FreeWX-Wi 1.01,2013-01-03 14:00:00,
2013-01-03 09:05:00,29.7,12.9,30.36,NNE,16,4.0,4.0,49,0.00,,,-99.99,FreeWX-Wi 1.01,2013-01-03 14:05:00,
2013-01-03 09:10:00,30.0,13.3,30.36,NNE,20,4.0,0.0,49,0.00,,,-99.99,FreeWX-Wi 1.01,2013-01-03 14:10:00,
2013-01-03 09:15:00,30.2,13.3,30.36,NNE,20,4.0,0.0,49,0.00,,,-99.99,FreeWX-Wi 1.01,2013-01-03 14:15:00,
2013-01-03 09:20:00,30.2,13.3,30.39,NNE,20,4.0,5.4,49,0.00,,,-99.99,FreeWX-Wi 1.01,2013-01-03 14:20:00,
2013-01-03 09:25:00,30.6,13.3,30.39,NNE,18,4.0,5.8,48,0.00,,,-99.99,FreeWX-Wi 1.01,2013-01-03 14:25:00,
2013-01-03 09:30:00,30.9,13.6,30.39,NNE,17,4.0,5.4,48,0.00,,,-99.99,FreeWX-Wi 1.01,2013-01-03 14:30:00,
2013-01-03 09:35:00,31.1,13.6,30.39,NNE,14,3.0,5.4,48,0.00,,,-99.99,FreeWX-Wi 1.01,2013-01-03 14:35:00,
2013-01-03 09:40:00,31.1,13.6,30.39,North,11,2.0,3.6,48,0.00,,,-99.99,FreeWX-Wi 1.01,2013-01-03 14:40:00,
2013-01-03 09:45:00,31.3,13.8,30.39,North,6,2.0,4.0,48,0.00,,,-99.99,FreeWX-Wi 1.01,2013-01-03 14:45:00,
2013-01-03 09:50:00,31.6,14.2,30.39,North,3,1.0,2.7,48,0.00,,,-99.99,FreeWX-Wi 1.01,2013-01-03 14:50:00,
2013-01-03 09:55:00,32.0,13.6,30.39,North,0,2.0,6.3,46,0.00,,,-99.99,FreeWX-Wi 1.01,2013-01-03 14:55:00,
2013-01-03 10:00:00,32.2,13.8,30.39,North,0,2.0,6.3,46,0.00,,,-99.99,FreeWX-Wi 1.01,2013-01-03 15:00:00,
2013-01-03 10:05:00,32.5,13.6,30.39,North,358,2.0,7.6,45,0.00,,,-99.99,FreeWX-Wi 1.01,2013-01-03 15:05:00,
2013-01-03 10:10:00,32.9,13.5,30.39,North,358,3.0,10.1,44,0.00,,,-99.99,FreeWX-Wi 1.01,2013-01-03 15:10:00,
2013-01-03 10:15:00,33.1,13.1,30.39,North,0,3.0,10.1,43,0.00,,,-99.99,FreeWX-Wi 1.01,2013-01-03 15:15:00,
2013-01-03 10:20:00,33.3,13.3,30.39,North,1,3.0,8.3,43,0.00,,,-99.99,FreeWX-Wi 1.01,2013-01-03 15:20:00,
2013-01-03 10:25:00,33.4,13.5,30.39,North,2,3.0,7.6,43,0.00,,,-99.99,FreeWX-Wi 1.01,2013-01-03 15:25:00,
2013-01-03 10:35:00,33.8,13.1,30.39,North,3,4.0,10.5,42,0.00,,,-99.99,FreeWX-Wi 1.01,2013-01-03 15:35:00,
2013-01-03 10:40:00,34.0,12.7,30.39,North,8,5.0,10.5,41,0.00,,,-99.99,FreeWX-Wi 1.01,2013-01-03 15:40:00,
2013-01-03 10:45:00,34.3,13.1,30.39,NNE,12,5.0,12.8,41,0.00,,,-99.99,FreeWX-Wi 1.01,2013-01-03 15:45:00,
2013-01-03 10:50:00,34.7,13.5,30.39,NNE,15,6.0,11.4,41,0.00,,,-99.99,FreeWX-Wi 1.01,2013-01-03 15:50:00,
2013-01-03 10:55:00,34.9,13.6,30.39,NNE,16,6.0,10.5,41,0.00,,,-99.99,FreeWX-Wi 1.01,2013-01-03 15:55:00,
2013-01-03 11:00:00,35.4,13.5,30.39,NNE,18,7.0,10.5,40,0.00,,,-99.99,FreeWX-Wi 1.01,2013-01-03 16:00:00,
2013-01-03 11:05:00,36.0,14.0,30.39,NNE,20,7.0,15.9,40,0.00,,,-99.99,FreeWX-Wi 1.01,2013-01-03 16:05:00,
2013-01-03 11:10:00,36.1,13.6,30.39,NNE,20,8.0,12.8,39,0.00,,,-99.99,FreeWX-Wi 1.01,2013-01-03 16:10:00,
2013-01-03 11:15:00,36.1,13.6,30.39,NNE,21,8.0,13.2,39,0.00,,,-99.99,FreeWX-Wi 1.01,2013-01-03 16:15:00,
2013-01-03 11:20:00,36.3,13.8,30.39,NNE,21,8.0,15.4,39,0.00,,,-99.99,FreeWX-Wi 1.01,2013-01-03 16:20:00,
2013-01-03 11:25:00,36.9,14.2,30.39,NNE,22,8.0,12.8,39,0.00,,,-99.99,FreeWX-Wi 1.01,2013-01-03 16:25:00,
2013-01-03 11:30:00,37.2,13.5,30.39,NNE,23,8.0,13.2,37,0.00,,,-99.99,FreeWX-Wi 1.01,2013-01-03 16:30:00,
2013-01-03 11:40:00,38.3,13.1,30.41,NNE,25,9.0,15.0,35,0.00,,,-99.99,FreeWX-Wi 1.01,2013-01-03 16:40:00,
2013-01-03 11:45:00,38.5,13.3,30.41,NNE,28,9.0,15.4,35,0.00,,,-99.99,FreeWX-Wi 1.01,2013-01-03 16:45:00,
2013-01-03 11:50:00,38.5,12.6,30.41,NNE,29,10.0,12.8,34,0.00,,,-99.99,FreeWX-Wi 1.01,2013-01-03 16:50:00,
2013-01-03 11:55:00,38.7,12.7,30.41,NNE,31,10.0,12.8,34,0.00,,,-99.99,FreeWX-Wi 1.01,2013-01-03 16:55:00,
2013-01-03 12:00:00,38.7,12.0,30.41,NNE,32,10.0,10.1,33,0.00,,,-99.99,FreeWX-Wi 1.01,2013-01-03 17:00:00,
2013-01-03 12:05:00,38.7,12.0,30.41,NNE,32,10.0,10.0,33,0.00,,,-99.99,FreeWX-Wi 1.01,2013-01-03 17:05:00,
2013-01-03 12:15:00,38.7,12.0,30.41,NE,34,10.0,10.1,33,0.00,,,-99.99,FreeWX-Wi 1.01,2013-01-03 17:15:00,
2013-01-03 12:20:00,38.7,12.0,30.41,NE,35,10.0,11.4,33,0.00,,,-99.99,FreeWX-Wi 1.01,2013-01-03 17:20:00,
2013-01-03 12:26:00,38.7,12.0,30.41,NE,36,10.0,12.8,33,0.00,,,-99.99,FreeWX-Wi 1.01,2013-01-03 17:26:00,
2013-01-03 12:31:00,38.7,12.0,30.41,NE,37,10.0,12.3,33,0.00,,,-99.99,FreeWX-Wi 1.01,2013-01-03 17:31:00,
2013-01-03 12:36:00,39.0,11.7,30.41,NE,37,9.0,9.0,32,0.00,,,-99.99,FreeWX-Wi 1.01,2013-01-03 17:36:00,
2013-01-03 12:41:00,39.4,12.0,30.41,NE,38,9.0,11.0,32,0.00,,,-99.99,FreeWX-Wi 1.01,2013-01-03 17:41:00,
2013-01-03 12:46:00,39.4,11.3,30.41,NE,38,9.0,10.5,31,0.00,,,-99.99,FreeWX-Wi 1.01,2013-01-03 17:46:00,
2013-01-03 12:51:00,39.6,11.5,30.41,NE,38,9.0,9.0,31,0.00,,,-99.99,FreeWX-Wi 1.01,2013-01-03 17:51:00,
2013-01-03 12:56:00,39.6,11.5,30.41,NE,39,9.0,13.2,31,0.00,,,-99.99,FreeWX-Wi 1.01,2013-01-03 17:56:00,
2013-01-03 13:01:00,39.7,11.7,30.41,NE,39,9.0,12.8,31,0.00,,,-99.99,FreeWX-Wi 1.01,2013-01-03 18:01:00,
2013-01-03 13:06:00,39.7,11.7,30.39,NE,38,8.0,10.5,31,0.00,,,-99.99,FreeWX-Wi 1.01,2013-01-03 18:06:00,
2013-01-03 13:11:00,39.6,11.5,30.39,NE,38,8.0,10.1,31,0.00,,,-99.99,FreeWX-Wi 1.01,2013-01-03 18:11:00,
2013-01-03 13:16:00,39.7,11.7,30.39,NE,38,8.0,9.2,31,0.00,,,-99.99,FreeWX-Wi 1.01,2013-01-03 18:16:00,
2013-01-03 13:21:00,40.3,12.0,30.39,NE,38,8.0,11.0,31,0.00,,,-99.99,FreeWX-Wi 1.01,2013-01-03 18:21:00,
2013-01-03 13:26:00,40.3,11.3,30.39,NE,39,8.0,9.6,30,0.00,,,-99.99,FreeWX-Wi 1.01,2013-01-03 18:26:00,
2013-01-03 13:31:00,40.3,11.3,30.39,NE,38,8.0,10.1,30,0.00,,,-99.99,FreeWX-Wi 1.01,2013-01-03 18:31:00,
2013-01-03 13:36:00,40.6,11.7,30.39,NE,38,8.0,8.3,30,0.00,,,-99.99,FreeWX-Wi 1.01,2013-01-03 18:36:00,
2013-01-03 13:41:00,40.6,11.7,30.39,NE,39,8.0,10.1,30,0.00,,,-99.99,FreeWX-Wi 1.01,2013-01-03 18:41:00,
2013-01-03 13:46:00,40.8,11.8,30.39,NE,39,8.0,10.1,30,0.00,,,-99.99,FreeWX-Wi 1.01,2013-01-03 18:46:00,
2013-01-03 13:51:00,41.0,11.1,30.36,NE,39,8.0,8.7,29,0.00,,,-99.99,FreeWX-Wi 1.01,2013-01-03 18:51:00,
2013-01-03 13:56:00,40.8,11.8,30.36,NE,39,7.0,7.0,30,0.00,,,-99.99,FreeWX-Wi 1.01,2013-01-03 18:56:00,
2013-01-03 14:01:00,40.5,11.5,30.36,NE,40,7.0,7.0,30,0.00,,,-99.99,FreeWX-Wi 1.01,2013-01-03 19:01:00,
2013-01-03 14:06:00,40.5,11.5,30.39,NE,40,7.0,8.3,30,0.00,,,-99.99,FreeWX-Wi 1.01,2013-01-03 19:06:00,
2013-01-03 14:11:00,40.6,11.7,30.39,NE,40,7.0,8.1,30,0.00,,,-99.99,FreeWX-Wi 1.01,2013-01-03 19:11:00,
2013-01-03 14:16:00,40.5,11.5,30.39,NE,40,7.0,7.0,30,0.00,,,-99.99,FreeWX-Wi 1.01,2013-01-03 19:16:00,
2013-01-03 14:52:00,41.2,11.3,30.36,NE,43,6.0,8.7,29,0.00,,,-99.99,FreeWX-Wi 1.01,2013-01-03 19:52:00,
2013-01-03 14:57:00,41.4,11.5,30.36,NE,44,6.0,10.1,29,0.00,,,-99.99,FreeWX-Wi 1.01,2013-01-03 19:57:00,
2013-01-03 15:02:00,41.4,11.5,30.36,NE,45,6.0,8.7,29,0.00,,,-99.99,FreeWX-Wi 1.01,2013-01-03 20:02:00,
2013-01-03 15:07:00,41.5,11.7,30.36,NE,45,6.0,7.6,29,0.00,,,-99.99,FreeWX-Wi 1.01,2013-01-03 20:07:00,
2013-01-03 15:12:00,41.7,11.8,30.36,NE,45,6.0,7.2,29,0.00,,,-99.99,FreeWX-Wi 1.01,2013-01-03 20:12:00,
2013-01-03 15:17:00,41.7,11.8,30.36,NE,43,6.0,6.0,29,0.00,,,-99.99,FreeWX-Wi 1.01,2013-01-03 20:17:00,
2013-01-03 15:22:00,41.7,11.8,30.36,NE,43,5.0,8.1,29,0.00,,,-99.99,FreeWX-Wi 1.01,2013-01-03 20:22:00,
2013-01-03 15:27:00,41.5,11.7,30.36,NE,42,5.0,8.1,29,0.00,,,-99.99,FreeWX-Wi 1.01,2013-01-03 20:27:00,
2013-01-03 15:32:00,41.5,11.7,30.36,NE,41,5.0,6.3,29,0.00,,,-99.99,FreeWX-Wi 1.01,2013-01-03 20:32:00,
2013-01-03 15:37:00,41.7,11.8,30.36,NE,39,5.0,5.8,29,0.00,,,-99.99,FreeWX-Wi 1.01,2013-01-03 20:37:00,
2013-01-03 15:42:00,41.7,11.8,30.36,NE,39,5.0,8.3,29,0.00,,,-99.99,FreeWX-Wi 1.01,2013-01-03 20:42:00,
2013-01-03 15:47:00,41.9,12.0,30.36,NE,38,5.0,10.1,29,0.00,,,-99.99,FreeWX-Wi 1.01,2013-01-03 20:47:00,
2013-01-03 15:52:00,41.9,12.0,30.36,NE,36,5.0,6.3,29,0.00,,,-99.99,FreeWX-Wi 1.01,2013-01-03 20:52:00,
2013-01-03 15:57:00,41.7,11.8,30.36,NNE,33,5.0,6.3,29,0.00,,,-99.99,FreeWX-Wi 1.01,2013-01-03 20:57:00,
2013-01-03 16:02:00,41.7,11.8,30.36,NNE,31,5.0,6.3,29,0.00,,,-99.99,FreeWX-Wi 1.01,2013-01-03 21:02:00,
2013-01-03 16:07:00,41.7,11.8,30.36,NNE,29,5.0,5.8,29,0.00,,,-99.99,FreeWX-Wi 1.01,2013-01-03 21:07:00,
2013-01-03 16:12:00,41.9,12.0,30.36,NNE,29,4.0,5.8,29,0.00,,,-99.99,FreeWX-Wi 1.01,2013-01-03 21:12:00,
2013-01-03 16:17:00,41.7,11.8,30.36,NNE,29,4.0,6.3,29,0.00,,,-99.99,FreeWX-Wi 1.01,2013-01-03 21:17:00,
2013-01-03 16:22:00,41.7,11.8,30.36,NNE,27,4.0,5.4,29,0.00,,,-99.99,FreeWX-Wi 1.01,2013-01-03 21:22:00,
2013-01-03 16:27:00,41.7,11.8,30.36,NNE,25,4.0,5.4,29,0.00,,,-99.99,FreeWX-Wi 1.01,2013-01-03 21:27:00,
2013-01-03 16:32:00,41.7,11.8,30.36,NNE,23,4.0,8.1,29,0.00,,,-99.99,FreeWX-Wi 1.01,2013-01-03 21:32:00,
2013-01-03 16:37:00,41.7,11.8,30.36,NNE,23,4.0,4.0,29,0.00,,,-99.99,FreeWX-Wi 1.01,2013-01-03 21:37:00,
2013-01-03 16:42:00,41.7,11.8,30.36,NNE,22,4.0,6.3,29,0.00,,,-99.99,FreeWX-Wi 1.01,2013-01-03 21:42:00,
2013-01-03 16:52:00,41.7,11.8,30.36,NNE,19,4.0,7.6,29,0.00,,,-99.99,FreeWX-Wi 1.01,2013-01-03 21:52:00,
2013-01-03 16:57:00,41.7,11.1,30.36,NNE,18,4.0,6.3,28,0.00,,,-99.99,FreeWX-Wi 1.01,2013-01-03 21:57:00,
2013-01-03 17:02:00,41.7,11.1,30.36,NNE,17,4.0,5.8,28,0.00,,,-99.99,FreeWX-Wi 1.01,2013-01-03 22:02:00,
2013-01-03 17:12:00,41.5,10.9,30.39,NNE,13,4.0,7.6,28,0.00,,,-99.99,FreeWX-Wi 1.01,2013-01-03 22:12:00,
2013-01-03 17:17:00,41.4,10.8,30.39,North,10,4.0,8.1,28,0.00,,,-99.99,FreeWX-Wi 1.01,2013-01-03 22:17:00,
2013-01-03 17:22:00,41.2,10.6,30.36,North,8,4.0,6.3,28,0.00,,,-99.99,FreeWX-Wi 1.01,2013-01-03 22:22:00,
2013-01-03 17:27:00,41.2,10.6,30.36,North,7,4.0,9.6,28,0.00,,,-99.99,FreeWX-Wi 1.01,2013-01-03 22:27:00,
2013-01-03 17:33:00,41.2,10.6,30.36,North,6,4.0,8.1,28,0.00,,,-99.99,FreeWX-Wi 1.01,2013-01-03 22:33:00,
2013-01-03 17:38:00,41.2,10.6,30.36,North,6,4.0,8.7,28,0.00,,,-99.99,FreeWX-Wi 1.01,2013-01-03 22:38:00,
2013-01-03 17:43:00,41.4,10.8,30.36,North,4,5.0,8.1,28,0.00,,,-99.99,FreeWX-Wi 1.01,2013-01-03 22:43:00,
2013-01-03 17:48:00,41.5,10.9,30.36,North,3,5.0,7.6,28,0.00,,,-99.99,FreeWX-Wi 1.01,2013-01-03 22:48:00,
2013-01-03 17:53:00,41.5,10.9,30.36,North,2,5.0,10.1,28,0.00,,,-99.99,FreeWX-Wi 1.01,2013-01-03 22:53:00,
2013-01-03 17:58:00,42.1,11.3,30.36,North,2,5.0,8.3,28,0.00,,,-99.99,FreeWX-Wi 1.01,2013-01-03 22:58:00,
2013-01-03 18:03:00,42.1,11.3,30.36,North,1,5.0,8.1,28,0.00,,,-99.99,FreeWX-Wi 1.01,2013-01-03 23:03:00,
2013-01-03 18:08:00,42.1,11.3,30.36,North,0,5.0,9.6,28,0.00,,,-99.99,FreeWX-Wi 1.01,2013-01-03 23:08:00,
2013-01-03 18:13:00,41.9,11.1,30.36,North,359,5.0,8.3,28,0.00,,,-99.99,FreeWX-Wi 1.01,2013-01-03 23:13:00,
2013-01-03 18:18:00,41.7,11.1,30.36,North,359,5.0,9.2,28,0.00,,,-99.99,FreeWX-Wi 1.01,2013-01-03 23:18:00,
2013-01-03 18:23:00,41.5,10.9,30.36,North,359,6.0,8.3,28,0.00,,,-99.99,FreeWX-Wi 1.01,2013-01-03 23:23:00,
2013-01-03 18:28:00,41.2,10.6,30.36,North,359,6.0,8.7,28,0.00,,,-99.99,FreeWX-Wi 1.01,2013-01-03 23:28:00,
2013-01-03 18:33:00,41.2,10.6,30.36,North,0,6.0,8.1,28,0.00,,,-99.99,FreeWX-Wi 1.01,2013-01-03 23:33:00,
2013-01-03 18:38:00,41.0,10.4,30.36,North,1,6.0,7.6,28,0.00,,,-99.99,FreeWX-Wi 1.01,2013-01-03 23:38:00,
2013-01-03 18:43:00,40.8,11.1,30.36,North,1,6.0,6.0,29,0.00,,,-99.99,FreeWX-Wi 1.01,2013-01-03 23:43:00,
2013-01-03 18:48:00,40.8,11.1,30.36,North,2,6.0,6.0,29,0.00,,,-99.99,FreeWX-Wi 1.01,2013-01-03 23:48:00,
2013-01-03 18:53:00,40.6,10.9,30.36,North,3,6.0,6.3,29,0.00,,,-99.99,FreeWX-Wi 1.01,2013-01-03 23:53:00,
2013-01-03 18:58:00,40.6,10.9,30.36,North,5,6.0,6.0,29,0.00,,,-99.99,FreeWX-Wi 1.01,2013-01-03 23:58:00,
2013-01-03 19:03:00,40.5,10.8,30.36,North,8,6.0,6.0,29,0.00,,,-99.99,FreeWX-Wi 1.01,2013-01-04 00:03:00,
2013-01-03 19:08:00,40.5,10.8,30.36,North,9,5.0,0.0,29,0.00,,,-99.99,FreeWX-Wi 1.01,2013-01-04 00:08:00,
2013-01-03 19:13:00,40.3,10.6,30.36,NNE,12,5.0,0.0,29,0.00,,,-99.99,FreeWX-Wi 1.01,2013-01-04 00:13:00,
2013-01-03 19:18:00,40.3,10.6,30.36,NNE,16,5.0,5.0,29,0.00,,,-99.99,FreeWX-Wi 1.01,2013-01-04 00:18:00,
2013-01-03 19:23:00,39.9,10.2,30.36,NNE,18,5.0,5.0,29,0.00,,,-99.99,FreeWX-Wi 1.01,2013-01-04 00:23:00,
2013-01-03 19:28:00,39.7,10.0,30.36,NNE,24,4.0,4.0,29,0.00,,,-99.99,FreeWX-Wi 1.01,2013-01-04 00:28:00,
2013-01-03 19:33:00,39.9,10.2,30.36,NNE,30,4.0,4.0,29,0.00,,,-99.99,FreeWX-Wi 1.01,2013-01-04 00:33:00,
2013-01-03 19:38:00,39.9,10.2,30.36,NNE,33,4.0,4.0,29,0.00,,,-99.99,FreeWX-Wi 1.01,2013-01-04 00:38:00,
2013-01-03 19:43:00,39.9,10.2,30.36,NE,38,4.0,4.0,29,0.00,,,-99.99,FreeWX-Wi 1.01,2013-01-04 00:43:00,
2013-01-03 19:48:00,39.7,10.0,30.36,NE,42,4.0,4.0,29,0.00,,,-99.99,FreeWX-Wi 1.01,2013-01-04 00:48:00,
2013-01-03 19:53:00,39.6,10.0,30.33,NE,46,3.0,4.0,29,0.00,,,-99.99,FreeWX-Wi 1.01,2013-01-04 00:53:00,
2013-01-03 19:58:00,39.4,9.9,30.33,NE,50,3.0,3.1,29,0.00,,,-99.99,FreeWX-Wi 1.01,2013-01-04 00:58:00,
2013-01-03 20:03:00,39.4,9.9,30.36,ENE,57,3.0,3.0,29,0.00,,,-99.99,FreeWX-Wi 1.01,2013-01-04 01:03:00,
2013-01-03 20:08:00,39.4,9.9,30.36,ENE,62,2.0,0.0,29,0.00,,,-99.99,FreeWX-Wi 1.01,2013-01-04 01:08:00,
2013-01-03 20:13:00,39.4,9.9,30.36,ENE,66,2.0,0.0,29,0.00,,,-99.99,FreeWX-Wi 1.01,2013-01-04 01:13:00,
2013-01-03 20:18:00,39.4,9.9,30.36,ENE,69,2.0,0.0,29,0.00,,,-99.99,FreeWX-Wi 1.01,2013-01-04 01:18:00,
2013-01-03 20:23:00,39.2,9.7,30.36,ENE,74,1.0,0.0,29,0.00,,,-99.99,FreeWX-Wi 1.01,2013-01-04 01:23:00,
2013-01-03 20:28:00,39.0,9.5,30.36,ENE,77,1.0,0.0,29,0.00,,,-99.99,FreeWX-Wi 1.01,2013-01-04 01:28:00,
2013-01-03 20:33:00,38.8,9.3,30.36,ENE,78,1.0,0.0,29,0.00,,,-99.99,FreeWX-Wi 1.01,2013-01-04 01:33:00,
2013-01-03 20:38:00,38.5,9.9,30.36,ENE,78,1.0,0.0,30,0.00,,,-99.99,FreeWX-Wi 1.01,2013-01-04 01:38:00,
2013-01-03 20:43:00,38.5,9.9,30.36,ENE,77,1.0,0.0,30,0.00,,,-99.99,FreeWX-Wi 1.01,2013-01-04 01:43:00,
2013-01-03 20:48:00,38.5,9.9,30.36,ENE,76,1.0,0.0,30,0.00,,,-99.99,FreeWX-Wi 1.01,2013-01-04 01:48:00,
2013-01-03 20:53:00,38.5,9.9,30.36,North,-999,0.0,0.0,30,0.00,,,-99.99,FreeWX-Wi 1.01,2013-01-04 01:53:00,
2013-01-03 20:58:00,38.5,9.9,30.36,North,-999,0.0,0.0,30,0.00,,,-99.99,FreeWX-Wi 1.01,2013-01-04 01:58:00,
2013-01-03 21:03:00,38.5,9.9,30.36,North,-999,0.0,0.0,30,0.00,,,-99.99,FreeWX-Wi 1.01,2013-01-04 02:03:00,
2013-01-03 21:08:00,38.5,9.9,30.36,North,-999,0.0,0.0,30,0.00,,,-99.99,FreeWX-Wi 1.01,2013-01-04 02:08:00,
2013-01-03 21:13:00,38.5,9.9,30.36,North,-999,0.0,0.0,30,0.00,,,-99.99,FreeWX-Wi 1.01,2013-01-04 02:13:00,
2013-01-03 21:18:00,38.5,9.9,30.36,North,-999,0.0,0.0,30,0.00,,,-99.99,FreeWX-Wi 1.01,2013-01-04 02:18:00,
2013-01-03 21:23:00,38.5,9.9,30.36,North,-999,0.0,0.0,30,0.00,,,-99.99,FreeWX-Wi 1.01,2013-01-04 02:23:00,
2013-01-03 21:28:00,38.5,9.9,30.36,North,-999,0.0,0.0,30,0.00,,,-99.99,FreeWX-Wi 1.01,2013-01-04 02:28:00,
2013-01-03 21:33:00,38.5,9.9,30.36,North,-999,0.0,0.0,30,0.00,,,-99.99,FreeWX-Wi 1.01,2013-01-04 02:33:00,
2013-01-03 21:38:00,38.5,9.9,30.36,North,-999,0.0,0.0,30,0.00,,,-99.99,FreeWX-Wi 1.01,2013-01-04 02:38:00,
2013-01-03 21:43:00,38.5,9.9,30.36,North,-999,0.0,0.0,30,0.00,,,-99.99,FreeWX-Wi 1.01,2013-01-04 02:43:00,
2013-01-03 21:48:00,38.5,9.9,30.39,North,-999,0.0,0.0,30,0.00,,,-99.99,FreeWX-Wi 1.01,2013-01-04 02:48:00,
2013-01-03 21:53:00,38.5,9.9,30.39,North,-999,0.0,0.0,30,0.00,,,-99.99,FreeWX-Wi 1.01,2013-01-04 02:53:00,
2013-01-03 21:58:00,38.5,9.9,30.39,North,-999,0.0,0.0,30,0.00,,,-99.99,FreeWX-Wi 1.01,2013-01-04 02:58:00,
2013-01-03 22:03:00,38.5,9.9,30.39,North,-999,0.0,0.0,30,0.00,,,-99.99,FreeWX-Wi 1.01,2013-01-04 03:03:00,
2013-01-03 22:08:00,38.5,9.9,30.39,North,-999,0.0,0.0,30,0.00,,,-99.99,FreeWX-Wi 1.01,2013-01-04 03:08:00,
2013-01-03 22:13:00,38.1,9.5,30.39,North,-999,0.0,0.0,30,0.00,,,-99.99,FreeWX-Wi 1.01,2013-01-04 03:13:00,
2013-01-03 22:18:00,37.8,9.1,30.39,North,-999,0.0,0.0,30,0.00,,,-99.99,FreeWX-Wi 1.01,2013-01-04 03:18:00,
2013-01-03 22:23:00,37.8,9.1,30.39,North,-999,0.0,0.0,30,0.00,,,-99.99,FreeWX-Wi 1.01,2013-01-04 03:23:00,
2013-01-03 22:28:00,37.9,9.3,30.39,North,-999,0.0,0.0,30,0.00,,,-99.99,FreeWX-Wi 1.01,2013-01-04 03:28:00,
2013-01-03 22:33:00,37.9,9.3,30.39,North,-999,0.0,0.0,30,0.00,,,-99.99,FreeWX-Wi 1.01,2013-01-04 03:33:00,
2013-01-03 22:38:00,37.9,9.3,30.39,North,-999,0.0,0.0,30,0.00,,,-99.99,FreeWX-Wi 1.01,2013-01-04 03:38:00,
2013-01-03 22:43:00,37.9,9.3,30.39,North,-999,0.0,0.0,30,0.00,,,-99.99,FreeWX-Wi 1.01,2013-01-04 03:43:00,
2013-01-03 22:48:00,37.9,9.3,30.39,North,-999,0.0,4.0,30,0.00,,,-99.99,FreeWX-Wi 1.01,2013-01-04 03:48:00,
2013-01-03 22:53:00,37.9,9.3,30.39,North,-999,0.0,3.6,30,0.00,,,-99.99,FreeWX-Wi 1.01,2013-01-04 03:53:00,
2013-01-03 22:58:00,37.9,9.3,30.39,North,-999,0.0,3.1,30,0.00,,,-99.99,FreeWX-Wi 1.01,2013-01-04 03:58:00,
2013-01-03 23:03:00,38.1,9.5,30.39,North,-999,0.0,4.0,30,0.00,,,-99.99,FreeWX-Wi 1.01,2013-01-04 04:03:00,
2013-01-03 23:08:00,38.1,9.5,30.39,North,-999,0.0,2.7,30,0.00,,,-99.99,FreeWX-Wi 1.01,2013-01-04 04:08:00,
2013-01-03 23:13:00,37.9,9.3,30.39,North,-999,0.0,2.7,30,0.00,,,-99.99,FreeWX-Wi 1.01,2013-01-04 04:13:00,
2013-01-03 23:18:00,37.9,9.3,30.39,North,-999,0.0,3.1,30,0.00,,,-99.99,FreeWX-Wi 1.01,2013-01-04 04:18:00,
2013-01-03 23:23:00,37.9,10.0,30.39,North,-999,0.0,0.0,31,0.00,,,-99.99,FreeWX-Wi 1.01,2013-01-04 04:23:00,
2013-01-03 23:28:00,37.8,9.9,30.39,North,-999,0.0,0.0,31,0.00,,,-99.99,FreeWX-Wi 1.01,2013-01-04 04:28:00,
2013-01-03 23:33:00,37.6,9.7,30.39,North,-999,0.0,0.0,31,0.00,,,-99.99,FreeWX-Wi 1.01,2013-01-04 04:33:00,
2013-01-03 23:38:00,37.2,9.3,30.39,North,-999,0.0,0.0,31,0.00,,,-99.99,FreeWX-Wi 1.01,2013-01-04 04:38:00,
2013-01-03 23:43:00,37.0,9.3,30.39,North,-999,0.0,0.0,31,0.00,,,-99.99,FreeWX-Wi 1.01,2013-01-04 04:43:00,
2013-01-03 23:48:00,37.0,9.3,30.39,North,-999,0.0,0.0,31,0.00,,,-99.99,FreeWX-Wi 1.01,2013-01-04 04:48:00,
2013-01-03 23:53:00,37.0,10.0,30.39,North,-999,0.0,0.0,32,0.00,,,-99.99,FreeWX-Wi 1.01,2013-01-04 04:53:00,
2013-01-03 23:58:00,37.0,10.0,30.39,North,-999,0.0,0.0,32,0.00,,,-99.99,FreeWX-Wi 1.01,2013-01-04 04:58:00,